Cloud_Cover
0 4 0 0 0 0 0 0 0 0 0 1 1 97 31 2 1 0 2 25 26 100 100 100 78 19 5 5 3 1 0 0 0 0 0 0 0 0 3 50 5 5 5
5 1 0 0 0 0 0 31 17 42 2 0 0 1 0 0 3 4 5 38 48 100 72 11 54 6 5 5 4 0 0 0 0 0 0 0 2 10 12 36 95 5 74
3 0 0 7 0 0 0 2 100 76 39 0 1 2 3 5 5 5 10 73 74 78 75 23 5 5 5 5 5 2 0 0 0 5 2 0 0 4 2 4 5 5 4
0 0 0 6 0 2 3 52 51 23 100 5 4 5 5 5 5 6 14 28 9 8 5 18 5 10 5 4 0 0 0 2 5 1 0 0 0 0 5 4 0 0 0
0 0 5 0 0 0 0 96 15 66 57 21 37 5 5 5 24 31 37 11 22 23 17 96 38 5 5 4 0 0 1 0 5 5 5 5 5 4 2 4 5 3 3
0 0 0 0 85 60 2 5 5 72 32 10 36 12 16 54 66 21 5 75 81 46 21 5 5 5 38 5 5 4 0 5 5 5 19 5 5 5 5 5 5 5 11
0 0 0 0 45 19 5 14 5 49 5 5 5 6 21 35 76 85 85 28 5 5 5 1 5 40 84 88 6 0 5 5 5 5 45 12 18 5 6 100 47 94 77
0 0 43 0 0 5 5 5 5 5 23 9 6 6 52 55 8 5 5 5 29 5 4 1 2 14 64 75 6 4 5 5 4 5 72 59 79 80 96 98 100 74 62
0 37 43 4 0 5 5 5 5 5 47 57 6 5 10 43 36 75 48 43 66 37 5 0 3 3 27 94 92 9 5 4 5 5 28 14 7 45 100 93 66 100 100
0 44 60 0 0 5 5 5 5 5 69 58 50 34 70 44 68 96 99 99 81 37 5 5 5 55 47 6 22 84 5 0 5 21 48 59 65 95 100 100 100 100 100
54 100 18 0 0 5 5 5 5 5 10 97 99 93 100 100 84 100 99 12 91 5 5 24 92 86 7 22 87 11 5 13 18 86 34 63 68 100 100 100 100 100 100
99 45 2 0 1 16 5 5 5 5 22 100 100 42 5 100 100 39 6 64 5 5 5 82 58 71 5 10 74 58 74 78 21 13 74 100 100 100 100 100 100 100 98
43 5 5 4 4 14 5 5 5 5 27 100 97 96 100 93 6 5 12 6 4 5 7 30 5 20 5 2 46 99 42 68 22 100 100 100 100 100 100 100 100 100 100
4 4 41 87 2 5 5 5 5 24 95 100 100 100 100 46 8 51 100 0 5 2 5 3 5 5 5 5 8 94 22 29 79 100 100 100 100 100 100 100 100 100 100
0 4 4 5 5 5 5 5 23 100 100 100 99 96 62 100 82 99 81 5 5 5 5 5 5 5 4 5 5 37 48 77 86 100 100 100 100 100 100 100 100 100 100
5 2 5 23 13 5 26 5 15 62 88 100 100 100 95 100 99 85 44 5 5 5 5 5 10 5 2 2 5 44 64 54 100 100 100 100 100 100 100 100 100 100 100
5 60 100 5 25 97 16 5 61 100 100 100 100 70 93 98 76 7 5 5 5 5 13 63 33 3 5 5 7 62 78 100 100 100 100 100 100 100 100 100 100 100 100
68 35 16 5 20 5 5 91 99 90 87 100 69 5 5 5 5 7 5 7 34 13 93 5 5 5 5 44 69 81 100 100 100 100 100 100 100 100 100 100 100 100 100
0 0 2 5 4 15 84 45 72 64 5 20 5 20 5 5 5 5 11 89 6 5 1 0 2 5 55 59 95 100 100 100 100 100 100 100 100 100 100 100 100 100 100
0 0 4 5 13 96 29 100 99 41 5 5 72 35 5 55 4 17 61 68 7 5 5 5 5 5 77 96 100 100 100 100 100 100 100 100 100 100 100 100 100 100 100
0 0 5 83 93 43 100 55 71 45 22 11 67 62 32 5 4 5 4 5 5 5 5 5 5 5 93 100 100 100 100 100 100 100 100 100 100 100 100 100 100 100 100
0 2 6 64 55 91 37 14 98 74 100 62 32 14 5 5 4 5 5 5 5 5 5 5 5 26 100 100 100 100 100 100 100 100 100 100 100 100 100 100 100 91 78
5 26 70 100 95 83 30 54 88 100 98 84 65 50 5 0 5 5 5 5 28 28 67 5 5 98 100 100 100 100 100 100 100 100 100 100 100 100 100 100 92 90 70
5 75 100 85 45 6 69 58 58 100 93 83 15 5 4 5 0 5 5 14 100 30 26 5 5 93 100 83 100 98 100 100 100 100 100 100 100 98 73 93 96 70 56
81 66 85 65 8 49 66 35 100 84 32 93 5 5 4 2 5 5 97 93 89 12 5 5 26 100 100 99 66 69 98 97 100 100 72 75 96 83 75 99 86 96 52
48 65 20 13 12 28 6 5 64 76 8 65 5 4 5 5 5 5 79 14 5 5 5 1 20 98 100 100 96 81 100 90 89 91 70 71 69 85 88 69 16 20 69